Regional Weather Roundup
Issued by NWS

Home | Current Version | Previous Version | Graphics & Text | Print | Product List | Glossary On
Versions: 1 2 3 4 5 6 7 8 9 10 11 12 13 14 15 16 17 18 19 20 21 22 23 24 25 26 27 28 29 30 31 32 33 34 35 36 37 38 39 40 41 42 43 44 45 46 47 48 49 50
000
ASUS43 KDMX 280506
RWRIA

WEATHER ROUNDUP FOR IOWA
NATIONAL WEATHER SERVICE DES MOINES IA
1200 AM CDT FRI JUL 28 2017

NOTE: "FAIR" INDICATES FEW OR NO CLOUDS BELOW 12,000 FEET WITH NO
SIGNIFICANT WEATHER AND/OR OBSTRUCTIONS TO VISIBILITY.

* - THESE STATIONS ARE NOT NWS STATIONS...THUS NOT UNDER NWS
QUALITY CONTROL.  THEY ALSO DO NOT REPORT WEATHER SUCH
AS PRECIPITATION OR FOG.

IAZ001>003-012>014-020>022-031>034-043>046-280600-
   NORTHWEST IOWA

CITY           SKY/WX    TMP DP  RH WIND       PRES   REMARKS
CARROLL *      PTCLDY    68  66  94 CALM      30.03S
CHEROKEE *     CLEAR     66  65  96 NE3       30.05R
DENISON *      CLOUDY    66  64  94 CALM      30.05S
ORANGE CITY *  PTCLDY    70  63  78 NE3       30.06S
SHELDON *      CLEAR     61  59  94 CALM      30.05R
SIOUX CITY     PTCLDY    73  63  70 E7        30.03R
SPENCER        CLEAR     63  61  93 CALM      30.06R
STORM LAKE *   CLEAR     68  64  88 NE7       30.06R
$$

IAZ055>058-069>071-079>083-090>094-280600-
   SOUTHWEST IOWA

CITY           SKY/WX    TMP DP  RH WIND       PRES   REMARKS
ATLANTIC *     CLEAR     66  64  94 N3        30.03R
AUDUBON *      CLOUDY    63  61  94 CALM      30.04S
CLARINDA *       N/A     68  66  94 NE3       30.03S
COUNCIL BLFS * CLOUDY    70  66  88 NE7       30.02S
CRESTON *      CLEAR     66  59  77 NE7       30.03S
HARLAN  *      CLOUDY    64  64 100 CALM      30.06S
LAMONI         CLEAR     70  62  76 N7        30.01R
RED OAK *      CLEAR     66  64  94 CALM      30.02R
SHENANDOAH *   CLEAR     66  66 100 NE3       30.01S
$$

IAZ047>049-059>061-072>074-084-280600-
   CENTRAL IOWA

CITY           SKY/WX    TMP DP  RH WIND       PRES   REMARKS
AMES           CLEAR     65  65 100 CALM      30.02R
ANKENY *       CLEAR     66  63  88 CALM      30.02R
BOONE *        CLEAR     68  63  83 NW3       30.02R
CHARITON *     CLEAR     68  63  83 N5        30.01R
DES MOINES     CLEAR     74  62  66 NE3       30.00R
GRINNELL*      PTCLDY    66  61  81 NE3       30.02S
KNOXVILLE *    CLEAR     72  61  68 NE3       29.99S
MARSHALLTOWN   CLEAR     67  63  87 N3        30.01R
NEWTON *       CLEAR     68  63  83 N5        30.01S
PELLA *        CLEAR     67  61  79 CALM      30.01S
PERRY *          N/A     66  65  97 NW3       30.02R
$$

IAZ004>006-015-016-023>025-035-036-280600-
   NORTH CENTRAL IOWA

CITY           SKY/WX    TMP DP  RH WIND       PRES   REMARKS
ALGONA *       CLEAR     66  66 100 CALM      30.05R
CLARION *      CLEAR     66  66 100 NE5       30.04R
ESTHERVILLE    CLEAR     62  61  96 N5        30.05S
FORT DODGE *   CLEAR     70  63  78 NE5       30.04S
MASON CITY     CLEAR     63  61  93 N7        30.05S
FOREST CITY *    N/A     64  64 100 CALM      30.04S
WEBSTER CITY * MOCLDY    66  64  94 N3        30.02R
IOWA FALLS *   MOCLDY    69  65  88 CALM      30.04S
$$

IAZ007>011-017>019-026>030-037>042-050>054-066-280600-
   NORTHEAST IOWA

CITY           SKY/WX    TMP DP  RH WIND       PRES   REMARKS
CHARLES CITY * CLEAR     66  64  94 N6        30.03S
DECORAH *      CLEAR     68  63  83 N3        30.02R
DUBUQUE          N/A    N/A N/A N/A MISG      30.02R
MONTICELLO *   CLEAR     66  64  94 CALM      30.00R
WATERLOO       CLEAR     67  64  90 NW3       30.00R
$$

IAZ064-065-067-068-078-280600-
   EAST CENTRAL IOWA

CITY           SKY/WX    TMP DP  RH WIND       PRES   REMARKS
DAVENPORT      CLEAR     66  63  90 NE5       30.01R
IOWA CITY      CLEAR     72  64  76 NE3       30.00R
MT. PLEASANT * CLEAR     68  67  98 N5        29.98S
MUSCATINE *    CLEAR     70  66  88 CALM      29.98R
QUAD CITIES    CLEAR     67  64  90 CALM      29.97R
$$

IAZ062-063-075>077-085>089-095>099-280600-
   SOUTHEAST IOWA

CITY           SKY/WX    TMP DP  RH WIND       PRES   REMARKS
BURLINGTON     MOCLDY    73  67  81 NE5       29.97R
FAIRFIELD *    CLEAR     66  63  88 NE6       29.98S
FORT MADISON * CLEAR     72  68  88 CALM      29.98R
KEOKUK *       CLOUDY    75  64  69 NE10      29.96R
OSKALOOSA *      N/A     66  62  85 NE5       30.00R
OTTUMWA        CLEAR     70  63  78 N6        29.99R
WASHINGTON *   CLEAR     68  66  94 NE5       30.00R
$$

ABBREVIATIONS USED IN REMARKS
   TC - TEMPERATURES IN CELSIUS
  WCI - WIND CHILL INDEX
   HX - HEAT INDEX
  VSB - VISIBILITY
$$




USA.gov is the U.S. government's official web portal to all federal, state and local government web resources and services.